Location: BAF
(53.9483°N, 27.7497°E)
Time: 22:55:12
(UTC+02:00)

ISS - Pass Details

Date: 06 December 2020
Orbit: 418 x 419 km, 51.6° (Epoch: 16 January)

Event Time Altitude Azimuth Distance (km) Brightness Sun altitude
Rises 17:37:52 0° 278° (W) 2,370 1.3 -14.9°
Reaches altitude 10° 17:40:11 10° 265° (W) 1,503 0.3 -15.2°
Maximum altitude 17:43:01 25° 208° (SSW) 885 -1.6 -15.6°
Drops below altitude 10° 17:45:50 10° 150° (SSE) 1,496 -1.1 -16.0°
Enters shadow 17:46:27 - 145° (SE) 1,714 -0.8 -16.1°
